This demonstration page uses our WeatherBlox Daily Observations layout. Learn more.

Left ArrowRight Arrow

Hourly Observations for May 18, 2017

Temp ( °F °C ) Dew Point ( °F °C ) Humidity (%) Winds ( mph kmh ) Pressure ( in mb ) Visibility ( mi km ) Precip ( " mm )
12:53 am 00:53 Clear 70 21.1 24 -4.4 18 18 SSE 10 17 29.58 1002 10 16 0.00 0.00
1:53 am 01:53 Clear 68 20 31 -0.6 25 25 SSE 6 9 29.58 1002 10 16 0.00 0.00
2:53 am 02:53 Clear 60 15.6 30 -1.1 32 32 N 3 6 29.58 1002 10 16 0.00 0.00
3:53 am 03:53 Clear 59 15 31 -0.6 35 35 N 7 11 29.59 1002 10 16 0.00 0.00
4:53 am 04:53 Clear 58 14.4 33 0.6 39 39 E 10 17 29.58 1002 10 16 0.00 0.00
5:53 am 05:53 Clear 61 16.1 42 5.6 50 50 ENE 3 6 29.58 1002 10 16 0.00 0.00
6:53 am 06:53 Clear 62 16.7 49 9.4 62 62 SE 8 13 29.58 1002 10 16 0.00 0.00
7:53 am 07:53 Sunny 64 17.8 49 9.4 58 58 S 5 7 29.61 1003 10 16 0.00 0.00
8:53 am 08:53 Sunny 74 23.3 41 5 31 31 SW 9 15 29.62 1003 10 16 0.00 0.00
9:53 am 09:53 Sunny 81 27.2 24 -4.4 12 12 W 24 39 29.63 1003 10 16 0.00 0.00
10:53 am 10:53 Sunny 84 28.9 24 -4.4 11 11 W 21 33 29.63 1004 10 16 0.00 0.00
11:53 am 11:53 Sunny 86 30 21 -6.1 9 9 W 23 37 29.62 1003 10 16 0.00 0.00
12:53 pm 12:53 Sunny 87 30.6 21 -6.1 9 9 WNW 18 30 29.62 1003 10 16 0.00 0.00
1:17 pm 13:17 Sunny 89 31.7 20 -6.7 8 8 W 16 26 29.56 1001 10 16 0.00 0.00
1:53 pm 13:53 Sunny 88 31.1 20 -6.7 8 8 W 15 24 29.61 1003 10 16 0.00 0.00
2:53 pm 14:53 Sunny 91 32.8 21 -6.1 8 8 WSW 20 31 29.59 1002 10 16 0.00 0.00
3:53 pm 15:53 Sunny 91 32.8 19 -7.2 7 7 SW 16 26 29.57 1002 10 16 0.00 0.00
4:53 pm 16:53 Sunny 91 32.8 19 -7.2 7 7 W 14 22 29.55 1001 10 16 0.00 0.00
5:53 pm 17:53 Sunny 93 33.9 20 -6.7 7 7 W 25 41 29.52 1000 10 16 0.00 0.00
6:53 pm 18:53 Sunny 92 33.3 19 -7.2 7 7 W 16 26 29.51 999 10 16 0.00 0.00
7:53 pm 19:53 Sunny 90 32.2 19 -7.2 7 7 WSW 13 20 29.52 1000 10 16 0.00 0.00
8:53 pm 20:53 Clear 84 28.9 17 -8.3 8 8 WSW 7 11 29.52 1000 10 16 0.00 0.00
9:53 pm 21:53 Clear 76 24.4 23 -5 14 14 NW 12 19 29.53 1000 10 16 0.00 0.00
10:53 pm 22:53 Clear 74 23.3 24 -4.4 15 15 N 9 15 29.54 1001 10 16 0.00 0.00
11:53 pm 23:53 Clear 67 19.4 24 -4.4 20 20 NNE 6 9 29.58 1002 10 16 0.00 0.00

Powered by AerisWeather